QPF
0.00 0.00 0.00 0.00 0.00 0.00 0.00 0.00 0.01 0.01 0.01 0.01 0.01 0.00 0.00 0.00 0.00 0.00 0.00 0.00 0.00 0.01 0.01 0.02 0.03 0.04 0.03 0.02 0.01 0.00 0.00 0.00 0.00 0.00 0.00 0.00 0.00 0.00 0.00 0.00 0.00 0.01 0.01
0.00 0.00 0.00 0.00 0.00 0.00 0.00 0.00 0.00 0.00 0.00 0.00 0.00 0.00 0.00 0.00 0.00 0.00 0.00 0.00 0.01 0.01 0.02 0.03 0.04 0.04 0.03 0.02 0.01 0.00 0.00 0.00 0.00 0.00 0.00 0.00 0.00 0.00 0.00 0.00 0.00 0.00 0.00
0.00 0.00 0.00 0.00 0.00 0.00 0.00 0.00 0.00 0.00 0.00 0.00 0.00 0.00 0.00 0.00 0.00 0.00 0.00 0.01 0.01 0.02 0.03 0.03 0.03 0.02 0.02 0.01 0.00 0.00 0.00 0.00 0.00 0.00 0.00 0.00 0.00 0.00 0.00 0.00 0.00 0.00 0.00
0.00 0.00 0.00 0.00 0.00 0.00 0.00 0.00 0.00 0.00 0.00 0.00 0.00 0.00 0.00 0.00 0.00 0.00 0.00 0.01 0.01 0.01 0.01 0.01 0.01 0.01 0.01 0.00 0.00 0.00 0.00 0.00 0.00 0.00 0.00 0.00 0.00 0.00 0.00 0.00 0.00 0.00 0.00
0.00 0.00 0.00 0.00 0.00 0.00 0.00 0.00 0.00 0.00 0.00 0.00 0.00 0.00 0.00 0.00 0.00 0.00 0.00 0.00 0.00 0.00 0.00 0.00 0.00 0.00 0.00 0.00 0.00 0.00 0.00 0.00 0.00 0.00 0.00 0.00 0.00 0.00 0.00 0.00 0.01 0.01 0.01
0.00 0.00 0.00 0.00 0.00 0.00 0.00 0.00 0.00 0.00 0.00 0.00 0.00 0.00 0.00 0.00 0.00 0.00 0.00 0.00 0.00 0.00 0.00 0.00 0.00 0.00 0.00 0.00 0.00 0.00 0.00 0.00 0.00 0.00 0.00 0.00 0.00 0.00 0.01 0.01 0.01 0.02 0.01
0.00 0.00 0.00 0.00 0.00 0.00 0.00 0.00 0.00 0.00 0.00 0.00 0.00 0.00 0.00 0.00 0.00 0.00 0.00 0.00 0.00 0.00 0.00 0.00 0.00 0.00 0.00 0.00 0.00 0.00 0.00 0.00 0.00 0.00 0.00 0.00 0.00 0.01 0.02 0.02 0.02 0.02 0.02
0.00 0.00 0.00 0.00 0.00 0.00 0.00 0.00 0.00 0.00 0.00 0.00 0.00 0.00 0.00 0.00 0.00 0.00 0.00 0.00 0.00 0.00 0.00 0.00 0.00 0.00 0.00 0.00 0.00 0.00 0.00 0.00 0.00 0.00 0.00 0.00 0.01 0.01 0.01 0.01 0.01 0.02 0.02
0.01 0.00 0.00 0.00 0.00 0.00 0.00 0.00 0.00 0.00 0.00 0.00 0.00 0.00 0.00 0.00 0.00 0.00 0.00 0.00 0.00 0.00 0.00 0.00 0.00 0.00 0.00 0.00 0.00 0.00 0.00 0.00 0.00 0.00 0.00 0.00 0.00 0.01 0.01 0.01 0.01 0.01 0.01
0.02 0.01 0.00 0.00 0.00 0.00 0.00 0.00 0.00 0.00 0.00 0.00 0.00 0.00 0.00 0.00 0.00 0.00 0.00 0.00 0.00 0.00 0.00 0.00 0.00 0.00 0.00 0.00 0.00 0.00 0.00 0.00 0.00 0.00 0.00 0.00 0.00 0.00 0.00 0.00 0.01 0.01 0.00
0.02 0.01 0.00 0.00 0.00 0.00 0.00 0.00 0.00 0.00 0.00 0.00 0.00 0.00 0.00 0.00 0.00 0.00 0.00 0.00 0.00 0.00 0.00 0.00 0.00 0.00 0.00 0.00 0.00 0.00 0.00 0.00 0.00 0.00 0.00 0.00 0.00 0.00 0.00 0.00 0.00 0.00 0.00
0.02 0.02 0.01 0.00 0.00 0.00 0.00 0.00 0.00 0.00 0.00 0.00 0.00 0.00 0.00 0.00 0.00 0.00 0.00 0.00 0.00 0.00 0.00 0.00 0.00 0.00 0.00 0.00 0.00 0.00 0.00 0.00 0.00 0.00 0.00 0.00 0.00 0.00 0.00 0.00 0.00 0.00 0.00
0.02 0.01 0.01 0.00 0.00 0.00 0.00 0.00 0.00 0.00 0.00 0.00 0.00 0.00 0.00 0.00 0.00 0.00 0.00 0.00 0.00 0.00 0.00 0.00 0.00 0.00 0.00 0.00 0.00 0.00 0.00 0.00 0.00 0.00 0.00 0.00 0.00 0.00 0.00 0.00 0.00 0.00 0.00
0.01 0.01 0.01 0.00 0.00 0.00 0.00 0.00 0.00 0.00 0.00 0.00 0.00 0.00 0.00 0.00 0.00 0.00 0.00 0.00 0.00 0.00 0.00 0.00 0.00 0.00 0.00 0.00 0.00 0.00 0.00 0.00 0.00 0.00 0.00 0.00 0.00 0.00 0.00 0.00 0.00 0.00 0.00
0.01 0.01 0.01 0.01 0.00 0.00 0.00 0.00 0.00 0.00 0.00 0.00 0.00 0.00 0.00 0.00 0.00 0.00 0.00 0.00 0.00 0.00 0.00 0.00 0.00 0.00 0.00 0.00 0.00 0.00 0.00 0.00 0.00 0.00 0.00 0.00 0.00 0.00 0.00 0.00 0.00 0.00 0.00
0.01 0.01 0.01 0.01 0.01 0.00 0.00 0.00 0.00 0.00 0.00 0.00 0.00 0.00 0.00 0.00 0.00 0.00 0.00 0.00 0.00 0.00 0.00 0.00 0.00 0.00 0.00 0.00 0.00 0.00 0.00 0.00 0.00 0.00 0.00 0.00 0.00 0.00 0.00 0.00 0.00 0.00 0.00
0.01 0.02 0.02 0.02 0.02 0.01 0.00 0.00 0.00 0.00 0.00 0.00 0.00 0.00 0.00 0.00 0.00 0.00 0.00 0.00 0.00 0.00 0.00 0.00 0.00 0.00 0.00 0.00 0.00 0.00 0.00 0.00 0.00 0.00 0.00 0.00 0.00 0.00 0.00 0.00 0.00 0.00 0.00
0.01 0.01 0.02 0.02 0.02 0.02 0.01 0.01 0.01 0.01 0.01 0.01 0.01 0.00 0.00 0.00 0.00 0.00 0.00 0.00 0.00 0.00 0.00 0.00 0.00 0.00 0.00 0.00 0.00 0.00 0.00 0.00 0.00 0.00 0.00 0.00 0.00 0.00 0.00 0.00 0.00 0.00 0.00
0.00 0.01 0.01 0.02 0.03 0.04 0.04 0.04 0.03 0.03 0.01 0.01 0.01 0.01 0.00 0.00 0.00 0.00 0.00 0.00 0.00 0.00 0.00 0.00 0.00 0.00 0.00 0.00 0.00 0.00 0.00 0.00 0.00 0.00 0.00 0.00 0.00 0.00 0.00 0.00 0.00 0.00 0.00
0.00 0.00 0.01 0.02 0.04 0.06 0.08 0.09 0.08 0.06 0.04 0.03 0.02 0.01 0.01 0.01 0.00 0.00 0.00 0.00 0.00 0.00 0.00 0.00 0.00 0.00 0.00 0.00 0.00 0.00 0.00 0.00 0.00 0.00 0.00 0.00 0.00 0.00 0.00 0.00 0.00 0.00 0.00
0.00 0.00 0.00 0.01 0.03 0.06 0.07 0.06 0.06 0.05 0.05 0.04 0.03 0.03 0.03 0.02 0.01 0.00 0.00 0.00 0.00 0.00 0.00 0.00 0.00 0.00 0.00 0.00 0.00 0.00 0.00 0.00 0.00 0.00 0.00 0.00 0.00 0.00 0.00 0.00 0.00 0.00 0.00
0.00 0.00 0.00 0.00 0.01 0.03 0.03 0.05 0.09 0.12 0.11 0.10 0.07 0.05 0.04 0.03 0.02 0.01 0.01 0.01 0.00 0.00 0.00 0.00 0.00 0.00 0.00 0.00 0.00 0.00 0.00 0.00 0.00 0.00 0.00 0.00 0.00 0.00 0.00 0.00 0.00 0.00 0.00
0.00 0.00 0.00 0.00 0.01 0.03 0.04 0.08 0.10 0.11 0.09 0.07 0.04 0.03 0.03 0.04 0.04 0.03 0.03 0.03 0.02 0.01 0.01 0.01 0.00 0.00 0.00 0.00 0.00 0.00 0.00 0.00 0.00 0.00 0.00 0.00 0.00 0.00 0.00 0.00 0.00 0.00 0.00
0.00 0.00 0.00 0.01 0.02 0.03 0.04 0.05 0.05 0.04 0.03 0.03 0.04 0.05 0.06 0.07 0.05 0.05 0.04 0.03 0.03 0.02 0.02 0.01 0.01 0.00 0.00 0.00 0.00 0.00 0.00 0.00 0.00 0.00 0.00 0.00 0.00 0.00 0.00 0.00 0.00 0.00 0.00
0.00 0.00 0.00 0.01 0.02 0.03 0.04 0.04 0.05 0.04 0.04 0.06 0.06 0.06 0.06 0.06 0.05 0.05 0.05 0.04 0.04 0.03 0.03 0.02 0.01 0.01 0.01 0.00 0.00 0.00 0.00 0.00 0.00 0.00 0.00 0.00 0.00 0.00 0.00 0.00 0.00 0.00 0.00
0.00 0.00 0.00 0.00 0.01 0.02 0.03 0.04 0.04 0.03 0.03 0.04 0.03 0.04 0.04 0.06 0.06 0.05 0.05 0.05 0.04 0.03 0.03 0.02 0.01 0.01 0.00 0.00 0.00 0.00 0.00 0.00 0.00 0.00 0.00 0.00 0.00 0.00 0.00 0.00 0.00 0.00 0.00
MSLP
1012.92 1012.65 1012.48 1012.48 1012.64 1012.93 1013.29 1013.67 1014.01 1014.28 1014.48 1014.63 1014.77 1014.92 1015.11 1015.32 1015.54 1015.74 1015.88 1015.96 1015.99 1016.01 1016.04 1016.12 1016.27 1016.47 1016.71 1016.95 1017.15 1017.28 1017.34 1017.34 1017.31 1017.29 1017.29 1017.33 1017.38 1017.44 1017.47 1017.45 1017.38 1017.27 1017.16
1012.66 1012.47 1012.37 1012.43 1012.64 1012.97 1013.37 1013.77 1014.12 1014.41 1014.62 1014.79 1014.95 1015.13 1015.34 1015.57 1015.80 1015.99 1016.12 1016.19 1016.21 1016.21 1016.24 1016.31 1016.45 1016.64 1016.87 1017.08 1017.26 1017.36 1017.41 1017.40 1017.37 1017.35 1017.37 1017.42 1017.48 1017.55 1017.58 1017.56 1017.48 1017.37 1017.24
1012.35 1012.24 1012.22 1012.34 1012.61 1012.99 1013.42 1013.84 1014.22 1014.53 1014.76 1014.96 1015.15 1015.35 1015.58 1015.82 1016.05 1016.24 1016.37 1016.43 1016.44 1016.43 1016.44 1016.50 1016.62 1016.80 1017.00 1017.19 1017.34 1017.42 1017.46 1017.45 1017.42 1017.42 1017.45 1017.51 1017.58 1017.65 1017.67 1017.65 1017.57 1017.45 1017.32
1012.07 1012.03 1012.09 1012.28 1012.60 1013.01 1013.47 1013.92 1014.31 1014.63 1014.89 1015.11 1015.32 1015.54 1015.79 1016.05 1016.29 1016.48 1016.60 1016.65 1016.65 1016.64 1016.64 1016.69 1016.79 1016.95 1017.12 1017.29 1017.42 1017.49 1017.52 1017.51 1017.50 1017.51 1017.55 1017.61 1017.69 1017.74 1017.76 1017.73 1017.65 1017.53 1017.40
1011.88 1011.92 1012.04 1012.29 1012.65 1013.09 1013.56 1014.00 1014.39 1014.71 1014.97 1015.20 1015.43 1015.68 1015.95 1016.23 1016.47 1016.67 1016.79 1016.85 1016.85 1016.83 1016.83 1016.87 1016.97 1017.10 1017.26 1017.41 1017.52 1017.58 1017.61 1017.61 1017.61 1017.62 1017.67 1017.73 1017.79 1017.84 1017.84 1017.80 1017.71 1017.60 1017.48
1011.83 1011.93 1012.12 1012.42 1012.80 1013.24 1013.69 1014.11 1014.47 1014.77 1015.02 1015.25 1015.50 1015.76 1016.06 1016.35 1016.61 1016.82 1016.95 1017.02 1017.03 1017.02 1017.02 1017.06 1017.15 1017.28 1017.42 1017.55 1017.65 1017.71 1017.74 1017.74 1017.75 1017.77 1017.81 1017.86 1017.90 1017.93 1017.92 1017.86 1017.77 1017.67 1017.57
1011.91 1012.09 1012.33 1012.66 1013.05 1013.47 1013.88 1014.25 1014.56 1014.81 1015.04 1015.27 1015.52 1015.80 1016.12 1016.43 1016.71 1016.94 1017.09 1017.17 1017.19 1017.20 1017.21 1017.26 1017.35 1017.46 1017.59 1017.72 1017.81 1017.86 1017.89 1017.90 1017.90 1017.92 1017.95 1017.99 1018.02 1018.02 1017.99 1017.93 1017.85 1017.76 1017.69
1012.10 1012.34 1012.63 1012.98 1013.37 1013.75 1014.11 1014.41 1014.66 1014.86 1015.06 1015.27 1015.53 1015.83 1016.16 1016.50 1016.80 1017.05 1017.21 1017.31 1017.35 1017.37 1017.40 1017.46 1017.55 1017.66 1017.79 1017.90 1017.98 1018.03 1018.05 1018.06 1018.07 1018.08 1018.10 1018.12 1018.13 1018.12 1018.08 1018.02 1017.95 1017.89 1017.85
1012.32 1012.62 1012.96 1013.33 1013.70 1014.05 1014.35 1014.58 1014.77 1014.92 1015.09 1015.29 1015.55 1015.87 1016.22 1016.57 1016.89 1017.15 1017.33 1017.43 1017.49 1017.53 1017.57 1017.64 1017.74 1017.86 1017.99 1018.09 1018.17 1018.21 1018.23 1018.23 1018.23 1018.23 1018.25 1018.26 1018.26 1018.25 1018.21 1018.16 1018.11 1018.08 1018.07
1012.48 1012.83 1013.22 1013.61 1013.98 1014.30 1014.55 1014.73 1014.87 1014.99 1015.14 1015.34 1015.61 1015.94 1016.31 1016.67 1016.99 1017.25 1017.43 1017.54 1017.61 1017.66 1017.72 1017.81 1017.92 1018.05 1018.17 1018.28 1018.35 1018.39 1018.40 1018.39 1018.39 1018.39 1018.41 1018.43 1018.44 1018.43 1018.41 1018.37 1018.35 1018.33 1018.35
1012.52 1012.92 1013.35 1013.76 1014.13 1014.43 1014.66 1014.81 1014.93 1015.04 1015.19 1015.40 1015.69 1016.03 1016.40 1016.77 1017.08 1017.33 1017.50 1017.61 1017.69 1017.75 1017.83 1017.94 1018.08 1018.22 1018.36 1018.47 1018.54 1018.58 1018.58 1018.58 1018.58 1018.59 1018.61 1018.64 1018.67 1018.68 1018.69 1018.67 1018.66 1018.67 1018.69
1012.41 1012.84 1013.30 1013.74 1014.12 1014.42 1014.64 1014.80 1014.92 1015.04 1015.21 1015.45 1015.75 1016.11 1016.48 1016.84 1017.14 1017.38 1017.54 1017.65 1017.73 1017.81 1017.92 1018.06 1018.22 1018.39 1018.55 1018.67 1018.75 1018.79 1018.80 1018.80 1018.80 1018.83 1018.87 1018.92 1018.98 1019.03 1019.05 1019.07 1019.07 1019.07 1019.09
1012.13 1012.59 1013.06 1013.52 1013.92 1014.24 1014.48 1014.65 1014.81 1014.97 1015.17 1015.44 1015.77 1016.14 1016.51 1016.86 1017.14 1017.36 1017.52 1017.63 1017.72 1017.84 1017.98 1018.16 1018.36 1018.57 1018.76 1018.90 1018.99 1019.04 1019.06 1019.07 1019.08 1019.12 1019.19 1019.27 1019.36 1019.44 1019.50 1019.53 1019.54 1019.53 1019.52
1011.73 1012.18 1012.66 1013.13 1013.54 1013.89 1014.16 1014.38 1014.58 1014.79 1015.04 1015.35 1015.71 1016.08 1016.45 1016.79 1017.06 1017.27 1017.43 1017.56 1017.69 1017.85 1018.04 1018.27 1018.52 1018.77 1018.99 1019.16 1019.28 1019.34 1019.37 1019.39 1019.42 1019.48 1019.56 1019.68 1019.80 1019.90 1019.99 1020.03 1020.03 1020.00 1019.94
1011.24 1011.66 1012.13 1012.60 1013.02 1013.39 1013.71 1013.98 1014.24 1014.51 1014.81 1015.15 1015.53 1015.91 1016.28 1016.61 1016.89 1017.11 1017.29 1017.46 1017.64 1017.85 1018.11 1018.40 1018.71 1019.01 1019.26 1019.46 1019.59 1019.67 1019.71 1019.74 1019.78 1019.85 1019.96 1020.09 1020.24 1020.37 1020.46 1020.51 1020.51 1020.45 1020.34
1010.70 1011.08 1011.52 1011.97 1012.40 1012.79 1013.15 1013.47 1013.79 1014.11 1014.46 1014.83 1015.22 1015.61 1015.99 1016.32 1016.62 1016.87 1017.10 1017.33 1017.58 1017.87 1018.20 1018.56 1018.92 1019.26 1019.55 1019.77 1019.92 1020.01 1020.06 1020.10 1020.14 1020.22 1020.34 1020.48 1020.63 1020.77 1020.88 1020.93 1020.91 1020.83 1020.68
1010.16 1010.48 1010.87 1011.29 1011.71 1012.12 1012.51 1012.89 1013.25 1013.63 1014.01 1014.41 1014.81 1015.21 1015.59 1015.95 1016.28 1016.58 1016.88 1017.19 1017.53 1017.90 1018.30 1018.72 1019.13 1019.50 1019.82 1020.06 1020.22 1020.32 1020.37 1020.41 1020.46 1020.54 1020.65 1020.79 1020.94 1021.08 1021.18 1021.23 1021.21 1021.11 1020.94
1009.64 1009.89 1010.22 1010.59 1011.00 1011.42 1011.84 1012.25 1012.67 1013.08 1013.50 1013.91 1014.32 1014.73 1015.13 1015.51 1015.88 1016.25 1016.63 1017.04 1017.46 1017.92 1018.39 1018.86 1019.30 1019.70 1020.02 1020.27 1020.44 1020.55 1020.61 1020.66 1020.71 1020.78 1020.88 1021.00 1021.14 1021.27 1021.37 1021.41 1021.39 1021.29 1021.12
1009.13 1009.31 1009.57 1009.90 1010.28 1010.70 1011.14 1011.59 1012.05 1012.50 1012.94 1013.37 1013.79 1014.21 1014.62 1015.04 1015.47 1015.91 1016.37 1016.86 1017.38 1017.90 1018.43 1018.93 1019.40 1019.80 1020.13 1020.39 1020.57 1020.68 1020.76 1020.81 1020.86 1020.93 1021.02 1021.13 1021.25 1021.36 1021.44 1021.49 1021.47 1021.38 1021.23
1008.66 1008.76 1008.94 1009.20 1009.55 1009.96 1010.42 1010.91 1011.41 1011.89 1012.37 1012.82 1013.25 1013.68 1014.12 1014.57 1015.05 1015.56 1016.10 1016.67 1017.25 1017.83 1018.39 1018.91 1019.39 1019.79 1020.12 1020.38 1020.57 1020.71 1020.81 1020.89 1020.96 1021.03 1021.11 1021.20 1021.30 1021.39 1021.46 1021.50 1021.49 1021.42 1021.29
1008.22 1008.23 1008.32 1008.52 1008.82 1009.22 1009.70 1010.22 1010.76 1011.29 1011.80 1012.28 1012.74 1013.19 1013.65 1014.13 1014.66 1015.22 1015.83 1016.45 1017.08 1017.69 1018.27 1018.79 1019.26 1019.66 1019.99 1020.26 1020.48 1020.66 1020.80 1020.92 1021.02 1021.11 1021.19 1021.27 1021.35 1021.41 1021.47 1021.50 1021.50 1021.45 1021.34
1007.83 1007.74 1007.73 1007.85 1008.10 1008.48 1008.96 1009.52 1010.11 1010.70 1011.25 1011.77 1012.27 1012.75 1013.24 1013.75 1014.32 1014.92 1015.56 1016.22 1016.87 1017.49 1018.07 1018.58 1019.03 1019.43 1019.77 1020.06 1020.32 1020.56 1020.76 1020.94 1021.09 1021.22 1021.31 1021.39 1021.45 1021.49 1021.53 1021.54 1021.53 1021.49 1021.40
1007.50 1007.29 1007.18 1007.20 1007.39 1007.74 1008.23 1008.82 1009.47 1010.12 1010.74 1011.32 1011.86 1012.38 1012.91 1013.46 1014.05 1014.67 1015.33 1016.00 1016.65 1017.26 1017.82 1018.32 1018.76 1019.15 1019.50 1019.84 1020.16 1020.46 1020.74 1021.00 1021.22 1021.39 1021.51 1021.60 1021.64 1021.66 1021.67 1021.66 1021.63 1021.58 1021.49
1007.23 1006.91 1006.67 1006.58 1006.70 1007.01 1007.51 1008.14 1008.84 1009.56 1010.26 1010.92 1011.53 1012.10 1012.67 1013.25 1013.86 1014.50 1015.16 1015.82 1016.46 1017.05 1017.59 1018.06 1018.49 1018.89 1019.27 1019.64 1020.03 1020.41 1020.78 1021.12 1021.41 1021.63 1021.79 1021.88 1021.92 1021.92 1021.89 1021.85 1021.79 1021.71 1021.60
1007.03 1006.58 1006.21 1006.02 1006.05 1006.32 1006.81 1007.47 1008.24 1009.04 1009.83 1010.57 1011.25 1011.89 1012.51 1013.13 1013.76 1014.41 1015.06 1015.71 1016.33 1016.90 1017.41 1017.87 1018.30 1018.70 1019.11 1019.53 1019.97 1020.43 1020.87 1021.29 1021.64 1021.92 1022.11 1022.22 1022.25 1022.23 1022.17 1022.08 1021.98 1021.86 1021.70
1006.87 1006.29 1005.80 1005.50 1005.45 1005.68 1006.16 1006.85 1007.66 1008.54 1009.42 1010.25 1011.02 1011.73 1012.41 1013.07 1013.73 1014.39 1015.05 1015.68 1016.29 1016.84 1017.34 1017.79 1018.21 1018.62 1019.05 1019.51 1020.00 1020.51 1021.01 1021.48 1021.89 1022.20 1022.42 1022.53 1022.56 1022.52 1022.43 1022.30 1022.16 1021.98 1021.78
Thickness
5759 5760 5759 5757 5756 5755 5753 5751 5750 5748 5746 5744 5742 5740 5738 5737 5736 5735 5734 5734 5733 5733 5732 5731 5730 5729 5727 5725 5724 5723 5722 5721 5720 5718 5717 5716 5716 5715 5714 5713 5713 5712 5712
5761 5759 5756 5755 5753 5751 5749 5747 5745 5743 5741 5739 5738 5736 5735 5733 5732 5731 5731 5730 5730 5730 5729 5728 5727 5725 5723 5722 5721 5720 5718 5717 5716 5714 5713 5712 5712 5711 5710 5709 5708 5708 5708
5759 5756 5753 5751 5749 5747 5745 5743 5741 5739 5737 5735 5733 5732 5730 5729 5728 5727 5727 5726 5726 5726 5725 5724 5722 5720 5719 5717 5716 5715 5714 5713 5712 5710 5710 5708 5707 5707 5706 5705 5704 5704 5703
5757 5753 5750 5748 5746 5743 5741 5739 5737 5735 5733 5731 5729 5727 5726 5724 5723 5722 5722 5721 5721 5720 5719 5718 5716 5715 5714 5713 5712 5711 5710 5709 5708 5707 5706 5704 5703 5703 5703 5702 5701 5700 5699
5753 5750 5746 5744 5742 5740 5738 5735 5733 5732 5730 5727 5725 5723 5721 5720 5718 5717 5716 5715 5714 5714 5713 5712 5710 5709 5708 5708 5707 5706 5706 5705 5704 5702 5701 5700 5699 5699 5698 5697 5697 5696 5695
5748 5745 5742 5740 5738 5736 5734 5732 5730 5728 5726 5723 5721 5719 5717 5715 5713 5711 5710 5709 5708 5708 5707 5706 5705 5704 5703 5703 5702 5702 5701 5700 5699 5698 5697 5695 5695 5694 5693 5692 5692 5691 5691
5743 5740 5738 5736 5734 5732 5730 5728 5726 5724 5722 5719 5717 5714 5712 5710 5708 5706 5704 5703 5703 5702 5701 5700 5699 5698 5698 5697 5697 5696 5695 5694 5693 5693 5692 5691 5690 5689 5688 5687 5686 5685 5685
5740 5736 5733 5731 5729 5728 5726 5724 5722 5720 5718 5715 5713 5710 5708 5705 5703 5701 5700 5698 5698 5696 5695 5695 5694 5693 5692 5692 5692 5691 5690 5689 5687 5686 5686 5685 5685 5684 5682 5681 5680 5679 5678
5735 5732 5728 5726 5724 5723 5721 5720 5718 5716 5714 5711 5709 5706 5703 5701 5699 5697 5695 5694 5693 5691 5690 5689 5688 5688 5687 5687 5686 5686 5685 5684 5682 5681 5680 5679 5679 5678 5676 5674 5672 5671 5670
5728 5727 5724 5722 5720 5718 5716 5715 5713 5711 5709 5708 5705 5702 5700 5697 5695 5693 5690 5689 5688 5687 5685 5684 5683 5683 5682 5681 5681 5680 5679 5678 5676 5675 5674 5673 5672 5671 5669 5667 5665 5664 5663
5720 5720 5719 5717 5715 5713 5711 5710 5708 5706 5705 5703 5701 5699 5696 5693 5691 5689 5687 5685 5684 5682 5681 5679 5678 5677 5677 5676 5675 5675 5674 5672 5670 5669 5668 5667 5666 5663 5661 5659 5657 5656 5654
5714 5714 5714 5713 5712 5709 5707 5705 5703 5702 5700 5699 5697 5695 5692 5690 5688 5686 5683 5681 5680 5678 5677 5675 5673 5672 5671 5670 5669 5669 5667 5665 5663 5662 5661 5660 5658 5656 5653 5650 5649 5647 5646
5714 5712 5711 5710 5709 5706 5704 5701 5699 5698 5696 5694 5693 5691 5688 5686 5684 5682 5680 5678 5676 5674 5672 5670 5669 5667 5666 5664 5663 5661 5659 5657 5656 5654 5653 5652 5650 5648 5645 5642 5640 5639 5638
5712 5711 5710 5708 5706 5703 5701 5699 5696 5694 5692 5690 5689 5687 5684 5682 5680 5678 5676 5674 5672 5669 5667 5665 5663 5661 5659 5658 5656 5654 5651 5649 5647 5646 5644 5643 5641 5639 5636 5634 5632 5630 5629
5712 5711 5709 5707 5704 5701 5698 5696 5694 5691 5689 5688 5686 5684 5681 5679 5676 5673 5671 5669 5667 5665 5662 5660 5657 5655 5653 5651 5649 5647 5644 5641 5639 5637 5635 5633 5631 5629 5627 5625 5623 5622 5621
5709 5709 5709 5706 5704 5701 5698 5695 5693 5689 5687 5685 5683 5681 5679 5676 5673 5670 5667 5665 5662 5660 5657 5654 5651 5649 5646 5643 5641 5639 5636 5633 5630 5628 5626 5623 5621 5619 5616 5615 5613 5612 5611
5706 5707 5706 5706 5703 5700 5697 5694 5691 5688 5685 5683 5681 5679 5676 5673 5670 5667 5664 5661 5658 5655 5651 5648 5644 5641 5638 5636 5632 5630 5628 5625 5621 5619 5616 5614 5611 5609 5607 5605 5603 5602 5601
5704 5703 5704 5704 5701 5699 5697 5693 5690 5687 5684 5682 5679 5676 5674 5670 5667 5664 5661 5657 5653 5649 5646 5642 5637 5633 5629 5626 5623 5621 5619 5616 5613 5610 5607 5604 5602 5599 5597 5595 5593 5592 5591
5702 5702 5701 5701 5700 5697 5695 5692 5689 5686 5683 5680 5677 5674 5671 5668 5665 5661 5657 5653 5648 5644 5640 5636 5630 5626 5621 5618 5615 5613 5610 5608 5605 5601 5598 5595 5592 5590 5588 5585 5583 5581 5580
5700 5700 5699 5699 5698 5695 5691 5687 5684 5682 5680 5678 5675 5672 5669 5665 5661 5657 5652 5647 5643 5638 5632 5628 5623 5618 5613 5610 5608 5604 5601 5599 5596 5593 5590 5587 5583 5581 5578 5576 5573 5571 5570
5695 5695 5696 5695 5695 5692 5687 5682 5678 5676 5675 5672 5670 5668 5664 5661 5657 5653 5647 5641 5637 5632 5627 5622 5616 5610 5604 5602 5598 5594 5591 5589 5587 5584 5581 5578 5575 5572 5569 5566 5563 5561 5559
5690 5691 5692 5692 5692 5691 5688 5685 5681 5676 5671 5668 5666 5663 5661 5657 5653 5648 5642 5636 5631 5626 5620 5616 5611 5603 5598 5593 5590 5587 5583 5580 5577 5575 5571 5568 5564 5562 5558 5555 5553 5550 5549
5683 5685 5687 5688 5688 5688 5686 5680 5672 5664 5658 5656 5656 5655 5654 5651 5646 5642 5637 5632 5626 5621 5615 5610 5606 5600 5591 5585 5583 5580 5576 5573 5566 5564 5561 5558 5554 5551 5548 5545 5542 5540 5538
5678 5680 5681 5683 5683 5682 5679 5674 5669 5664 5659 5656 5653 5648 5644 5641 5639 5635 5630 5626 5620 5615 5609 5605 5600 5595 5588 5580 5574 5570 5566 5562 5557 5554 5550 5547 5544 5540 5537 5535 5531 5529 5527
5671 5672 5673 5675 5675 5674 5672 5670 5666 5663 5658 5648 5642 5637 5633 5630 5628 5626 5622 5617 5613 5607 5602 5598 5592 5587 5582 5575 5569 5563 5557 5550 5545 5541 5538 5534 5532 5529 5526 5523 5520 5516 5514
5662 5663 5663 5664 5665 5664 5663 5661 5659 5655 5647 5638 5633 5627 5623 5620 5617 5615 5612 5608 5604 5599 5594 5589 5584 5579 5573 5568 5562 5556 5549 5543 5536 5530 5525 5520 5517 5516 5514 5511 5507 5503 5500